Tracking 21092 objects as of 14-Aug-2020
HD Live streaming from Space Station
objects crossing your sky now
Track the most recent launched group of Starlink satellites

COSMOS 2236 (GLONASS)

Track COSMOS 2236 (GLONASS) now!
COSMOS 2236 (GLONASS) is classified as:


NORAD ID: 22513
Int'l Code: 1993-010B
Perigee: 19,126.7 km
Apogee: 19,147.0 km
Inclination: 64.1 °
Period: 675.7 minutes
Semi major axis: 25507 km
RCS: 3.1089 m2 (large)
Launch date: February 17, 1993
Source: Commonwealth of Independent States (former USSR) (CIS)
Launch site: TYURATAM MISSILE AND SPACE COMPLEX (TTMTR)
aabbcc
Your satellite tracking list
Your tracking list is empty




NASA's NSSDC Master Catalog

Two Line Element Set (TLE):
1 22513U 93010B   20226.35631637 -.00000011 +00000-0 +00000-0 0  9995
2 22513 064.0990 143.5145 0003981 094.5834 078.0677 02.13104690213906
Source of the keplerian elements: AFSPC